Location: R�serve Fauniques des Laurentides
(47.3100°N, 71.1900°W)
Time: 15:47:50
(UTC-05:00)

Amateur Radio Satellites - All Passes

Search period start: 28 February 2015 15:17
Search period end: 01 March 2015 15:17
Location: R�serve Fauniques des Laurentides, 47.3100°N, 71.1900°W

Satellite Date Start Highest point End Downlink Frequencies (MHz)
Time Altitude Azimuth
MOZHAYETS 4 28 Feb 15:20:34 15:22:45 14° 86° (E) 15:25:10
HORYU 2 28 Feb 15:31:32 15:34:44 19° 269° (W) 15:37:49 437.375
AO-7 28 Feb 15:33:37 15:41:44 53° 259° (W) 15:49:51 29.400- 29.500
M-CUBED/EXP-1 PRIME 28 Feb 15:56:18 16:00:04 34° 103° (ESE) 16:04:09 437.505
AUBIESAT-1 28 Feb 16:00:26 16:04:13 34° 103° (ESE) 16:08:17 437.475
Cubesat XI-IV 28 Feb 16:02:23 16:06:52 28° 63° (ENE) 16:11:28 437.490
KKS-1 28 Feb 16:03:51 16:06:53 18° 299° (WNW) 16:09:48 437.445
CUTE-I 28 Feb 16:11:51 16:16:33 33° 65° (ENE) 16:21:22 437.470
STARS 28 Feb 16:15:55 16:19:05 19° 298° (WNW) 16:22:09 437.465
JAS-2 28 Feb 16:16:53 16:21:54 35° 267° (W) 16:27:24 435.910
BEESAT 3 28 Feb 16:31:56 16:33:40 13° 111° (ESE) 16:35:34 437.485
ISS 28 Feb 16:41:12 16:43:05 14° 224° (SW) 16:44:55 145.825
YUBILEINY 28 Feb 16:45:15 16:53:59 70° 283° (WNW) 17:02:47 435.215
BEESAT 2 28 Feb 16:53:28 16:56:16 18° 113° (ESE) 16:59:12 435.950
MOZHAYETS 4 28 Feb 16:55:59 17:00:37 76° 286° (WNW) 17:05:15
AIST 1 28 Feb 16:58:08 17:01:14 19° 66° (ENE) 17:04:26
CUBESAT XI-V 28 Feb 17:12:04 17:14:50 16° 87° (E) 17:17:46 437.345
PRISM 28 Feb 17:22:10 17:25:00 18° 91° (E) 17:27:57 437.425
M-CUBED/EXP-1 PRIME 28 Feb 17:31:26 17:34:57 28° 298° (WNW) 17:38:38 437.505
AUBIESAT-1 28 Feb 17:35:30 17:39:02 28° 298° (WNW) 17:42:44 437.475
BRITE-PL 28 Feb 17:36:51 17:39:27 14° 57° (ENE) 17:42:15 437.365/2234.400
HO-68 28 Feb 17:39:04 17:43:51 20° 51° (NE) 17:48:51 435.675
Cubesat XI-IV 28 Feb 17:41:35 17:46:47 48° 261° (W) 17:52:00 437.490
CUTE-I 28 Feb 17:51:31 17:56:34 40° 263° (W) 18:01:38 437.470
GOMX 1 28 Feb 17:54:30 17:56:40 13° 58° (ENE) 17:59:02 467.674
STRAND 1 28 Feb 17:55:56 18:00:10 26° 93° (E) 18:04:28 437.568
BEESAT 3 28 Feb 18:07:06 18:11:13 81° 308° (NW) 18:15:24 437.485
AIST 2 28 Feb 18:13:59 18:18:02 44° 120° (ESE) 18:22:10 435.215
O/OREOS (USA 219) 28 Feb 18:16:17 18:20:33 36° 56° (NE) 18:24:49 437.305
BEESAT 2 28 Feb 18:30:00 18:34:05 58° 311° (NW) 18:38:14 435.950
AIST 1 28 Feb 18:34:58 18:39:15 49° 266° (W) 18:43:30
MOZHAYETS 4 28 Feb 18:35:41 18:37:09 11° 303° (WNW) 18:38:23
DOVE 4 28 Feb 18:38:58 18:42:38 21° 63° (ENE) 18:46:19 437.250
AAUSAT CUBESAT 2 28 Feb 18:41:22 18:43:31 14° 61° (ENE) 18:45:48 437.432
COMPASS 1 28 Feb 18:41:37 18:44:08 16° 63° (ENE) 18:46:46 437.405
YUBILEINY 28 Feb 18:47:11 18:52:54 18° 309° (NW) 18:58:17 435.215
CUBESAT XI-V 28 Feb 18:48:07 18:52:51 67° 286° (WNW) 18:57:31 437.345
PHONESAT 2.4 28 Feb 18:56:41 18:58:45 15° 158° (SSE) 19:00:52 2401.200-2431.200
PRISM 28 Feb 18:56:43 19:00:49 49° 289° (WNW) 19:04:55 437.425
CANX-2 28 Feb 19:03:16 19:07:10 38° 70° (ENE) 19:11:06 2200.000
SEEDS 28 Feb 19:04:06 19:07:46 31° 68° (ENE) 19:11:29 437.485
CINEMA 3 28 Feb 19:04:57 19:08:13 19° 64° (ENE) 19:11:32 145.822/145.860
VERMONT LUNAR 28 Feb 19:08:48 19:11:31 21° 167° (SSE) 19:14:15 437.305
BRITE-PL 28 Feb 19:11:35 19:17:14 73° 74° (ENE) 19:22:41 437.365/2234.400
UWE-3 28 Feb 19:11:41 19:12:19 10° 58° (ENE) 19:13:09 435.000/436.395/437.385
CUTE 1.7 + AOD 2 28 Feb 19:21:59 19:26:06 54° 72° (ENE) 19:30:14 437.475
HO-68 28 Feb 19:23:30 19:30:38 80° 71° (ENE) 19:37:51 435.675
GOMX 1 28 Feb 19:28:43 19:34:06 73° 73° (ENE) 19:39:16 467.674
STRAND 1 28 Feb 19:34:40 19:39:38 47° 292° (WNW) 19:44:32 437.568
CUBEBUG 2 28 Feb 19:41:01 19:44:32 23° 66° (ENE) 19:48:02 437.445
BEESAT 3 28 Feb 19:47:15 19:50:00 17° 329° (NNW) 19:52:42 437.485
Oscar 11 28 Feb 19:50:06 19:54:00 35° 69° (ENE) 19:57:57 145.826/435.025
AIST 2 28 Feb 19:53:01 19:56:49 29° 320° (NW) 20:00:36 435.215
O/OREOS (USA 219) 28 Feb 19:55:53 19:59:54 29° 255° (WSW) 20:03:49 437.305
DELFI C3 28 Feb 20:01:16 20:04:56 34° 69° (ENE) 20:08:38 145.870
AISAT 28 Feb 20:04:53 20:07:05 14° 59° (ENE) 20:09:28 437.250
DX 1 28 Feb 20:10:21 20:14:13 31° 67° (ENE) 20:18:08 434.975-435.025
BEESAT 2 28 Feb 20:10:55 20:13:11 14° 333° (NNW) 20:15:22 435.950
PCSat 28 Feb 20:13:41 20:18:18 30° 112° (ESE) 20:23:02 145.827
AAUSAT CUBESAT 2 28 Feb 20:14:35 20:18:42 67° 259° (WSW) 20:22:51 437.432
VELOX 1 28 Feb 20:14:55 20:17:39 17° 61° (ENE) 20:20:32 145.980
DOVE 4 28 Feb 20:14:56 20:20:05 62° 260° (W) 20:24:59 437.250
COMPASS 1 28 Feb 20:15:21 20:19:27 58° 259° (W) 20:23:35 437.405
ESTCUBE 1 28 Feb 20:23:54 20:24:41 10° 56° (ENE) 20:25:41 437.505/2401.250
CUBESAT XI-V 28 Feb 20:28:40 20:29:28 10° 304° (NW) 20:30:03 437.345
FUNcube-1 28 Feb 20:29:42 20:33:53 45° 71° (ENE) 20:37:59 145.935
ZACube-1 28 Feb 20:30:04 20:34:16 46° 71° (ENE) 20:38:24 437.345
PHONESAT 2.4 28 Feb 20:33:28 20:36:35 26° 174° (S) 20:39:41 2401.200-2431.200
CANX-2 28 Feb 20:39:54 20:43:17 22° 268° (W) 20:46:35 2200.000
SEEDS 28 Feb 20:39:59 20:43:37 27° 266° (W) 20:47:13 437.485
CINEMA 3 28 Feb 20:40:21 20:45:07 59° 260° (W) 20:49:42 145.822/145.860
UKube-1 28 Feb 20:42:21 20:46:39 61° 72° (ENE) 20:50:59 .
UWE-3 28 Feb 20:43:46 20:48:14 77° 75° (ENE) 20:52:35 435.000/436.395/437.385
VERMONT LUNAR 28 Feb 20:45:56 20:48:54 26° 184° (S) 20:51:52 437.305
HUMSAT D 28 Feb 20:51:37 20:55:34 41° 71° (ENE) 20:59:31 437.325/437.525
BRITE-PL 28 Feb 20:52:17 20:56:17 19° 272° (W) 21:00:01 437.365/2234.400
GONETS M04 28 Feb 20:58:06 21:05:55 41° 87° (E) 21:13:53
CUTE 1.7 + AOD 2 28 Feb 20:59:44 21:02:25 16° 271° (W) 21:04:58 437.475
GOMX 1 28 Feb 21:09:07 21:12:45 18° 272° (W) 21:16:06 467.674
ANTELSAT 28 Feb 21:12:09 21:13:39 12° 87° (E) 21:15:23 437.575/2403.000
50 SAT 28 Feb 21:12:24 21:16:15 48° 72° (ENE) 21:20:07 437.505
HO-68 28 Feb 21:13:48 21:19:16 22° 272° (W) 21:24:31 435.675
CUBEBUG 2 28 Feb 21:16:43 21:21:03 43° 262° (W) 21:25:16 437.445
Oscar 11 28 Feb 21:26:40 21:30:17 25° 267° (W) 21:33:51 145.826/435.025
DELFI C3 28 Feb 21:37:00 21:40:15 23° 267° (W) 21:43:27 145.870
AISAT 28 Feb 21:38:37 21:43:08 83° 256° (WSW) 21:47:41 437.250
DUCHIFAT 1 28 Feb 21:40:49 21:42:43 13° 87° (E) 21:44:48 145.980
BUGSAT 1 28 Feb 21:44:17 21:44:42 10° 85° (E) 21:45:23 437.445
DX 1 28 Feb 21:46:34 21:50:28 30° 265° (W) 21:54:21 434.975-435.025
VELOX 1 28 Feb 21:49:19 21:53:47 67° 258° (WSW) 21:58:18 145.980
CUBEBUG 1 28 Feb 21:50:07 21:54:28 58° 72° (ENE) 21:58:53 437.445
PCSat 28 Feb 21:56:16 22:01:33 50° 311° (NW) 22:06:51 145.827
ESTCUBE 1 28 Feb 21:56:18 22:00:49 72° 75° (ENE) 22:05:22 437.505/2401.250
POLYITAN 1 28 Feb 21:57:27 22:00:33 20° 91° (E) 22:03:44 437.675
POPSAT HIP 1 28 Feb 21:59:06 22:02:15 20° 91° (E) 22:05:28 437.405
FUNcube-1 28 Feb 22:07:11 22:10:29 20° 269° (W) 22:13:37 145.935
ZACube-1 28 Feb 22:07:39 22:10:55 20° 269° (W) 22:14:01 437.345
UNISAT 6 28 Feb 22:08:19 22:12:25 43° 98° (E) 22:16:33 437.425
PHONESAT 2.4 28 Feb 22:11:33 22:14:31 24° 191° (S) 22:17:28 2401.200-2431.200
UKube-1 28 Feb 22:20:37 22:23:17 15° 271° (W) 22:25:48 .
NANOSAT C BR1 28 Feb 22:22:41 22:26:34 35° 96° (E) 22:30:27 145.865
UWE-3 28 Feb 22:23:28 22:25:22 12° 273° (W) 22:27:03 435.000/436.395/437.385
VERMONT LUNAR 28 Feb 22:24:03 22:26:14 16° 200° (SSW) 22:28:21 437.305
HUMSAT D 28 Feb 22:28:22 22:31:35 20° 268° (W) 22:34:40 437.325/437.525
SPROUT 28 Feb 22:31:24 22:35:28 41° 70° (ENE) 22:39:34 437.525
TIGRISAT 28 Feb 22:34:26 22:38:43 80° 103° (ESE) 22:43:01 435.000
DANDE 28 Feb 22:38:02 22:41:50 17° 90° (E) 22:45:23 436.750
TISAT 1 28 Feb 22:43:08 22:47:16 50° 71° (ENE) 22:51:27 437.305
ANTELSAT 28 Feb 22:46:48 22:51:06 75° 285° (WNW) 22:55:23 437.575/2403.000
50 SAT 28 Feb 22:49:01 22:51:36 16° 270° (W) 22:54:03 437.505
GONETS M04 28 Feb 22:54:14 23:02:39 51° 288° (WNW) 23:11:05
QB50P1 28 Feb 22:54:43 22:58:59 77° 103° (ESE) 23:03:12 145.935-145.965
RS-15 28 Feb 22:56:59 23:07:14 51° 114° (ESE) 23:17:45 29.354- 29.394
SWISSCUBE 28 Feb 22:57:34 23:00:34 17° 60° (ENE) 23:03:43 437.505
QB50P2 28 Feb 22:57:46 23:02:03 84° 103° (ESE) 23:06:16 145.880/145.840
BEESAT 28 Feb 23:06:20 23:09:34 19° 61° (ENE) 23:12:57 436.000
DUCHIFAT 1 28 Feb 23:14:54 23:19:07 67° 286° (WNW) 23:23:17 145.980
BUGSAT 1 28 Feb 23:16:41 23:20:55 83° 282° (WNW) 23:25:03 437.445
CUSAT 1 28 Feb 23:18:40 23:24:29 39° 97° (E) 23:29:03 437.405
CUBEBUG 1 28 Feb 23:28:20 23:31:17 17° 271° (W) 23:34:06 437.445
ITUPSAT 1 28 Feb 23:31:16 23:35:22 30° 65° (ENE) 23:39:34 437.325
BEESAT 2 28 Feb 23:32:39 23:33:23 10° 20° (NNE) 23:34:13 435.950
POLYITAN 1 28 Feb 23:32:41 23:36:44 43° 290° (WNW) 23:40:43 437.675
POPSAT HIP 1 28 Feb 23:34:21 23:38:23 42° 290° (WNW) 23:42:21 437.405
ESTCUBE 1 28 Feb 23:35:54 23:38:18 14° 273° (W) 23:40:31 437.505/2401.250
PCSat 28 Feb 23:43:10 23:46:20 15° 334° (NNW) 23:49:24 145.827
UNISAT 6 28 Feb 23:45:43 23:49:00 21° 296° (WNW) 23:52:12 437.425
PHONESAT 2.4 28 Feb 23:51:31 23:52:15 10° 207° (SSW) 23:52:54 2401.200-2431.200
KKS-1 28 Feb 23:54:32 23:55:50 11° 57° (ENE) 23:57:19 437.445
NANOSAT C BR1 28 Feb 23:58:48 00:02:19 25° 294° (WNW) 00:05:45 145.865
SPROUT 01 Mar 00:08:19 00:11:45 22° 268° (W) 00:15:08 437.525
TIGRISAT 01 Mar 00:12:57 00:14:58 13° 300° (WNW) 00:16:49 435.000
DANDE 01 Mar 00:18:04 00:25:02 84° 280° (W) 00:30:14 436.750
TISAT 1 01 Mar 00:20:24 00:23:25 18° 270° (W) 00:26:19 437.305
QB50P1 01 Mar 00:32:13 00:34:21 13° 300° (WNW) 00:36:18 145.935-145.965
SWISSCUBE 01 Mar 00:33:11 00:37:57 72° 258° (WSW) 00:42:47 437.505
QB50P2 01 Mar 00:35:33 00:37:23 12° 301° (WNW) 00:39:04 145.880/145.840
BEESAT 01 Mar 00:42:16 00:47:00 64° 258° (WSW) 00:51:48 436.000
BEESAT 3 01 Mar 00:45:55 00:49:28 27° 39° (NE) 00:53:02 437.485
BUGSAT 1 01 Mar 00:54:48 00:55:45 11° 302° (WNW) 00:56:29 437.445
AIST 2 01 Mar 00:55:02 00:57:53 17° 31° (NNE) 01:00:46 435.215
YUBILEINY 01 Mar 00:55:50 01:01:24 18° 52° (NE) 01:07:20 435.215
GONETS M04 01 Mar 00:58:42 01:02:19 12° 316° (NW) 01:05:25
CUSAT 1 01 Mar 01:01:55 01:07:24 32° 287° (WNW) 01:11:38 437.405
ITAMSAT 1 01 Mar 01:04:55 01:08:32 19° 89° (E) 01:12:19 435.822/435.867
ITUPSAT 1 01 Mar 01:08:44 01:13:12 37° 264° (W) 01:17:39 437.325
RS-15 01 Mar 01:08:49 01:19:35 59° 320° (NW) 01:30:36 29.354- 29.394
BEESAT 2 01 Mar 01:08:57 01:12:49 35° 43° (NE) 01:16:38 435.950
Oscar 19 01 Mar 01:10:21 01:15:25 57° 101° (E) 01:20:29 437.125/150
KKS-1 01 Mar 01:27:19 01:31:48 80° 75° (ENE) 01:36:18 437.445
STARS 01 Mar 01:38:32 01:42:57 69° 73° (ENE) 01:47:23 437.465
SO-50 01 Mar 01:46:43 01:51:08 47° 121° (ESE) 01:55:45 436.795
Gurwin Techsat 1B 01 Mar 02:03:39 02:08:47 47° 98° (E) 02:13:55 435.225
DANDE 01 Mar 02:05:21 02:08:49 15° 296° (WNW) 02:11:38 436.750
BEESAT 3 01 Mar 02:23:47 02:27:47 46° 239° (WSW) 02:31:42 437.485
MOZHAYETS 4 01 Mar 02:25:31 02:28:41 19° 63° (ENE) 02:32:00
AIST 2 01 Mar 02:32:54 02:37:13 79° 52° (NE) 02:41:27 435.215
ITAMSAT 1 01 Mar 02:43:23 02:48:35 64° 289° (WNW) 02:53:44 435.822/435.867
BEESAT 2 01 Mar 02:47:13 02:50:59 32° 242° (WSW) 02:54:39 435.950
M-CUBED/EXP-1 PRIME 01 Mar 02:49:03 02:52:20 74° 70° (ENE) 02:55:47 437.505
Oscar 19 01 Mar 02:50:28 02:54:26 23° 299° (WNW) 02:58:19 437.125/150
YUBILEINY 01 Mar 02:51:24 03:00:16 72° 77° (ENE) 03:09:06 435.215
AUBIESAT-1 01 Mar 02:52:44 02:56:01 72° 69° (ENE) 02:59:29 437.475
KKS-1 01 Mar 03:07:11 03:09:07 12° 274° (W) 03:10:50 437.445
PCSat 01 Mar 03:15:04 03:18:10 15° 26° (NNE) 03:21:23 145.827
STARS 01 Mar 03:17:34 03:19:59 14° 272° (W) 03:22:11 437.465
HORYU 2 01 Mar 03:18:01 03:22:28 67° 102° (ESE) 03:26:54 437.375
JAS-2 01 Mar 03:20:28 03:26:53 33° 92° (E) 03:33:48 435.910
RS-15 01 Mar 03:25:09 03:34:49 33° 351° (N) 03:44:45 29.354- 29.394
SO-50 01 Mar 03:27:40 03:31:54 32° 321° (NW) 03:36:14 436.795
AO-7 01 Mar 03:31:14 03:39:07 46° 99° (E) 03:47:02 29.400- 29.500
Gurwin Techsat 1B 01 Mar 03:44:03 03:48:35 28° 297° (WNW) 03:53:01 435.225
MOZHAYETS 4 01 Mar 04:01:05 04:05:34 56° 260° (W) 04:10:06
AIST 2 01 Mar 04:13:05 04:15:17 13° 249° (WSW) 04:17:16 435.215
PRISM 01 Mar 04:15:49 04:18:54 21° 64° (ENE) 04:22:05 437.425
CUBESAT XI-V 01 Mar 04:18:26 04:22:02 23° 64° (ENE) 04:25:46 437.345
ITAMSAT 1 01 Mar 04:25:24 04:27:12 11° 307° (NW) 04:28:45 435.822/435.867
YUBILEINY 01 Mar 04:49:08 04:56:26 29° 278° (W) 05:03:28 435.215
HORYU 2 01 Mar 04:55:53 04:58:42 16° 299° (WNW) 05:01:22 437.375
PCSat 01 Mar 04:57:38 05:02:57 51° 49° (NE) 05:08:14 145.827
JAS-2 01 Mar 05:05:11 05:12:17 62° 290° (WNW) 05:19:54 435.910
SO-50 01 Mar 05:11:56 05:13:58 12° 345° (NNW) 05:15:57 436.795
STRAND 1 01 Mar 05:14:40 05:19:37 51° 70° (ENE) 05:24:38 437.568
AO-7 01 Mar 05:24:10 05:32:03 49° 300° (WNW) 05:39:50 29.400- 29.500
RS-15 01 Mar 05:40:38 05:50:57 40° 25° (NNE) 06:01:47 29.354- 29.394
PRISM 01 Mar 05:50:12 05:54:10 42° 261° (W) 05:58:10 437.425
CUBESAT XI-V 01 Mar 05:54:40 05:59:13 48° 262° (W) 06:03:49 437.345
Cubesat XI-IV 01 Mar 05:55:25 06:00:42 54° 100° (E) 06:05:57 437.490
CUTE-I 01 Mar 06:04:56 06:10:17 64° 101° (ESE) 06:15:37 437.470
PCSat 01 Mar 06:41:29 06:46:10 29° 249° (WSW) 06:50:46 145.827
HO-68 01 Mar 06:50:59 06:52:58 11° 81° (E) 06:55:30 435.675
JAS-2 01 Mar 06:52:05 06:56:14 16° 308° (NW) 07:00:16 435.910
STRAND 1 01 Mar 06:54:58 06:59:09 24° 268° (W) 07:03:15 437.568
SO-50 01 Mar 06:55:23 06:56:40 11° 9° (N) 06:58:01 436.795
GONETS M04 01 Mar 07:03:48 07:10:34 25° 58° (ENE) 07:17:35
AIST 1 01 Mar 07:07:18 07:11:39 83° 98° (E) 07:16:05
BRITE-PL 01 Mar 07:15:18 07:18:12 17° 86° (E) 07:21:08 437.365/2234.400
AO-7 01 Mar 07:18:45 07:23:00 15° 323° (NW) 07:26:57 29.400- 29.500
GOMX 1 01 Mar 07:29:32 07:31:59 15° 86° (E) 07:34:32 467.674
Cubesat XI-IV 01 Mar 07:36:06 07:40:31 26° 298° (WNW) 07:44:48 437.490
CUTE-I 01 Mar 07:45:51 07:49:57 22° 300° (WNW) 07:53:56 437.470
RS-15 01 Mar 07:53:36 08:05:01 88° 54° (NE) 08:16:58 29.354- 29.394
AAUSAT CUBESAT 2 01 Mar 07:55:50 07:58:19 16° 89° (E) 08:00:59 437.432
COMPASS 1 01 Mar 07:56:42 07:59:35 18° 90° (E) 08:02:35 437.405
TIGRISAT 01 Mar 08:02:21 08:04:24 13° 60° (ENE) 08:06:37 435.000
DOVE 4 01 Mar 08:11:53 08:15:32 27° 93° (E) 08:19:09 437.250
ANTELSAT 01 Mar 08:14:02 08:16:53 18° 63° (ENE) 08:19:50 437.575/2403.000
QB50P1 01 Mar 08:18:08 08:19:25 11° 59° (ENE) 08:20:54 145.935-145.965
SEEDS 01 Mar 08:20:43 08:24:41 38° 97° (E) 08:28:38 437.485
QB50P2 01 Mar 08:20:55 08:22:36 12° 59° (ENE) 08:24:27 145.880/145.840
CANX-2 01 Mar 08:21:02 08:25:10 49° 99° (E) 08:29:19 2200.000
O/OREOS (USA 219) 01 Mar 08:32:33 08:35:59 22° 103° (ESE) 08:39:32 437.305
CINEMA 3 01 Mar 08:32:55 08:36:19 24° 93° (E) 08:39:43 145.822/145.860
UWE-3 01 Mar 08:32:56 08:34:09 11° 86° (E) 08:35:37 435.000/436.395/437.385
SO-50 01 Mar 08:35:01 08:38:59 24° 33° (NNE) 08:43:00 436.795
HO-68 01 Mar 08:35:14 08:42:23 63° 102° (ESE) 08:49:31 435.675
DUCHIFAT 1 01 Mar 08:36:27 08:39:07 17° 62° (ENE) 08:41:54 145.980
BUGSAT 1 01 Mar 08:36:52 08:38:52 13° 60° (ENE) 08:41:02 437.445
CUTE 1.7 + AOD 2 01 Mar 08:39:51 08:44:06 71° 102° (ESE) 08:48:21 437.475
AIST 1 01 Mar 08:48:19 08:50:05 12° 299° (WNW) 08:51:38
BRITE-PL 01 Mar 08:52:40 08:57:19 57° 288° (WNW) 09:01:37 437.365/2234.400
POLYITAN 1 01 Mar 08:53:43 08:57:10 24° 66° (ENE) 09:00:41 437.675
POPSAT HIP 1 01 Mar 08:55:06 08:58:34 25° 66° (ENE) 09:02:07 437.405
GONETS M04 01 Mar 08:59:56 09:08:44 86° 262° (W) 09:17:32
CUBEBUG 2 01 Mar 09:04:55 09:08:34 29° 95° (E) 09:12:13 437.445
GOMX 1 01 Mar 09:06:15 09:10:44 60° 288° (WNW) 09:14:55 467.674
Oscar 11 01 Mar 09:09:59 09:14:09 45° 98° (E) 09:18:19 145.826/435.025
UNISAT 6 01 Mar 09:10:22 09:14:43 58° 72° (ENE) 09:19:00 437.425
DELFI C3 01 Mar 09:12:57 09:16:46 38° 97° (E) 09:20:37 145.870
NANOSAT C BR1 01 Mar 09:18:20 09:22:20 40° 70° (ENE) 09:26:23 145.865
ISS 01 Mar 09:21:22 09:24:14 30° 143° (SE) 09:27:09 145.825
AISAT 01 Mar 09:27:50 09:30:24 15° 88° (E) 09:33:07 437.250
AAUSAT CUBESAT 2 01 Mar 09:30:16 09:34:22 54° 288° (WNW) 09:38:28 437.432
DX 1 01 Mar 09:31:22 09:35:25 36° 97° (E) 09:39:28 434.975-435.025
COMPASS 1 01 Mar 09:31:33 09:35:35 46° 289° (WNW) 09:39:38 437.405
TIGRISAT 01 Mar 09:36:14 09:40:40 79° 256° (WSW) 09:45:01 435.000
VELOX 1 01 Mar 09:37:47 09:40:53 19° 90° (E) 09:44:06 145.980
ESTCUBE 1 01 Mar 09:47:55 09:49:43 12° 86° (E) 09:51:47 437.505/2401.250
ANTELSAT 01 Mar 09:49:00 09:53:21 57° 259° (W) 09:57:39 437.575/2403.000
DOVE 4 01 Mar 09:49:31 09:53:25 32° 293° (WNW) 09:57:08 437.250
QB50P1 01 Mar 09:50:23 09:54:42 87° 71° (ENE) 09:59:00 145.935-145.965
FUNcube-1 01 Mar 09:51:09 09:55:17 61° 101° (E) 09:59:23 145.935
ZACube-1 01 Mar 09:51:46 09:55:55 63° 102° (ESE) 10:00:02 437.345
QB50P2 01 Mar 09:53:38 09:57:56 86° 256° (WSW) 10:02:16 145.880/145.840
CUSAT 1 01 Mar 09:55:36 09:57:22 16° 67° (ENE) 09:59:06 437.405
SEEDS 01 Mar 09:56:56 10:00:20 23° 294° (WNW) 10:03:41 437.485
CANX-2 01 Mar 09:57:46 10:00:49 19° 296° (WNW) 10:03:47 2200.000
UKube-1 01 Mar 10:02:55 10:07:18 73° 103° (ESE) 10:11:37 .
RS-15 01 Mar 10:06:56 10:16:22 30° 254° (WSW) 10:25:42 29.354- 29.394
UWE-3 01 Mar 10:07:10 10:11:21 74° 285° (WNW) 10:15:29 435.000/436.395/437.385
HUMSAT D 01 Mar 10:08:17 10:12:18 50° 99° (E) 10:16:19 437.325/437.525
BUGSAT 1 01 Mar 10:09:33 10:13:49 79° 257° (WSW) 10:18:08 437.445
CINEMA 3 01 Mar 10:09:49 10:13:41 34° 291° (WNW) 10:17:25 145.822/145.860
DUCHIFAT 1 01 Mar 10:10:20 10:14:35 60° 260° (W) 10:18:50 145.980
O/OREOS (USA 219) 01 Mar 10:10:42 10:15:08 47° 301° (WNW) 10:19:36 437.305
SO-50 01 Mar 10:15:09 10:20:08 81° 233° (SW) 10:25:03 436.795
CUTE 1.7 + AOD 2 01 Mar 10:17:14 10:19:33 14° 299° (WNW) 10:21:44 437.475
50 SAT 01 Mar 10:22:43 10:26:35 51° 100° (E) 10:30:27 437.505
HO-68 01 Mar 10:23:32 10:29:45 32° 302° (WNW) 10:35:52 435.675
POLYITAN 1 01 Mar 10:28:56 10:32:57 37° 263° (W) 10:36:58 437.675
POPSAT HIP 1 01 Mar 10:30:19 10:34:19 37° 263° (W) 10:38:20 437.405
CUBEBUG 2 01 Mar 10:41:40 10:45:17 28° 293° (WNW) 10:48:49 437.445
Oscar 11 01 Mar 10:46:47 10:50:05 21° 296° (WNW) 10:53:18 145.826/435.025
DELFI C3 01 Mar 10:48:36 10:51:48 22° 294° (WNW) 10:54:56 145.870
UNISAT 6 01 Mar 10:49:10 10:51:56 16° 271° (W) 10:54:31 437.425
Oscar 19 01 Mar 10:53:19 10:56:42 19° 59° (ENE) 11:00:14 437.125/150
NANOSAT C BR1 01 Mar 10:55:01 10:58:24 22° 268° (W) 11:01:42 145.865
ISS 01 Mar 10:57:21 11:00:33 58° 341° (NNW) 11:03:45 145.825
DANDE 01 Mar 10:58:21 11:01:14 81° 261° (W) 11:03:50 436.750
GONETS M04 01 Mar 10:58:27 11:04:27 20° 283° (WNW) 11:10:03
AISAT 01 Mar 11:03:05 11:07:31 62° 288° (WNW) 11:11:53 437.250
DX 1 01 Mar 11:07:52 11:11:34 26° 295° (WNW) 11:15:10 434.975-435.025
CUBEBUG 1 01 Mar 11:12:13 11:16:40 76° 103° (ESE) 11:21:04 437.445
VELOX 1 01 Mar 11:13:28 11:17:50 51° 289° (WNW) 11:22:07 145.980
ESTCUBE 1 01 Mar 11:22:42 11:27:18 80° 285° (WNW) 11:31:51 437.505/2401.250
FUNcube-1 01 Mar 11:28:45 11:31:14 15° 298° (WNW) 11:33:36 145.935
ZACube-1 01 Mar 11:29:27 11:31:52 15° 298° (WNW) 11:34:10 437.345
QB50P1 01 Mar 11:30:32 11:31:18 10° 275° (W) 11:31:48 145.935-145.965
CUSAT 1 01 Mar 11:38:39 11:40:09 14° 269° (W) 11:41:33 437.405
UKube-1 01 Mar 11:40:28 11:42:57 15° 300° (WNW) 11:45:19 .
HUMSAT D 01 Mar 11:44:59 11:47:47 18° 296° (WNW) 11:50:28 437.325/437.525
Gurwin Techsat 1B 01 Mar 11:50:36 11:53:52 17° 58° (ENE) 11:57:19 435.225
SPROUT 01 Mar 11:50:48 11:55:01 52° 99° (E) 11:59:13 437.525
SO-50 01 Mar 11:57:45 12:00:00 13° 251° (WSW) 12:02:01 436.795
50 SAT 01 Mar 11:58:44 12:01:17 16° 297° (WNW) 12:03:43 437.505
TISAT 1 01 Mar 12:00:27 12:04:40 58° 101° (E) 12:08:49 437.305
ITAMSAT 1 01 Mar 12:25:35 12:30:25 40° 67° (ENE) 12:35:19 435.822/435.867
Oscar 19 01 Mar 12:30:25 12:35:34 74° 257° (WSW) 12:40:44 437.125/150
SWISSCUBE 01 Mar 12:30:59 12:34:48 24° 92° (E) 12:38:43 437.505
ISS 01 Mar 12:34:18 12:37:20 36° 1° (N) 12:40:23 145.825
BEESAT 01 Mar 12:39:47 12:43:47 26° 93° (E) 12:47:52 436.000
AO-7 01 Mar 12:43:59 12:49:58 23° 47° (NE) 12:56:08 29.400- 29.500
HORYU 2 01 Mar 12:46:01 12:47:47 12° 58° (ENE) 12:49:44 437.375
CUBEBUG 1 01 Mar 12:50:03 12:52:31 14° 300° (WNW) 12:54:50 437.445
ESTCUBE 1 01 Mar 13:01:49 13:03:29 12° 303° (WNW) 13:04:57 437.505/2401.250
ITUPSAT 1 01 Mar 13:05:48 13:10:26 44° 98° (E) 13:15:03 437.325
KKS-1 01 Mar 13:17:23 13:19:06 12° 86° (E) 13:21:03 437.445
SPROUT 01 Mar 13:27:44 13:30:48 19° 297° (WNW) 13:33:44 437.525
Gurwin Techsat 1B 01 Mar 13:27:55 13:33:14 84° 254° (WSW) 13:38:37 435.225
TISAT 1 01 Mar 13:37:19 13:40:04 17° 298° (WNW) 13:42:41 437.305
JAS-2 01 Mar 13:38:45 13:42:20 18° 53° (NE) 13:46:21 435.910
YUBILEINY 01 Mar 14:04:28 14:09:01 16° 74° (ENE) 14:14:05 435.215
ITAMSAT 1 01 Mar 14:05:23 14:10:03 31° 266° (W) 14:14:40 435.822/435.867
SWISSCUBE 01 Mar 14:08:19 14:12:56 46° 291° (WNW) 14:17:31 437.505
ISS 01 Mar 14:10:51 14:14:05 68° 21° (NNE) 14:17:19 145.825
BEESAT 01 Mar 14:17:17 14:21:49 41° 292° (WNW) 14:26:18 436.000
HORYU 2 01 Mar 14:19:24 14:23:51 90° 253° (WSW) 14:28:18 437.375
AO-7 01 Mar 14:33:20 14:41:40 79° 69° (ENE) 14:50:02 29.400- 29.500
ITUPSAT 1 01 Mar 14:44:08 14:48:08 26° 296° (WNW) 14:52:03 437.325
KKS-1 01 Mar 14:51:57 14:56:25 78° 285° (WNW) 15:00:50 437.445
STARS 01 Mar 15:01:39 15:06:05 89° 103° (ESE) 15:10:28 437.465
Gurwin Techsat 1B 01 Mar 15:11:51 15:14:10 12° 276° (W) 15:16:12 435.225
